Flag for U.S.A. Weather past 2 weeks in Germantown, Maryland, U.S.A.

Now
72 °F

Light rain. Clear.


Feels Like: 65 °F
Forecast: 69 / 80 °F
Wind: No wind

Location: Frederick Municipal Airport

Current Time: Jul 6, 2015 at 1:36:52 AM

Latest Report: Jul 6, 2015 at 12:50 AM


Visibility: 7 mi

Pressure: 30.15 "Hg

Humidity: 100%

Dew point: 72 °F

Location of GermantownLocation

Historic Weather in Germantown — Graph

°F

Germantown temperature yesterday

Maximum temperature yesterday: 84 °F (at 3:50 PM)
Minimum temperature yesterday: 63 °F (at 1:25 AM)
Average temperature yesterday: 71 °F

Past Weeks' High & Low Weather Summary

 TemperatureHumidityPressure
High93 °F (Jun 23, 3:55 PM)100% (Jun 21, 1:15 AM)30.20 "Hg (Jun 21, 1:15 AM)
Low54 °F (Jun 29, 4:45 AM)12% (Jun 23, 3:55 PM)27.23 "Hg (Jun 30, 5:45 PM)
Average70 °F89%29.96 "Hg
* Reported Jun 21 1:15 AM — Jul 6 12:30 AM, Germantown, Weather by CustomWeather, © 2015

Note: Actual official high and low records may vary slightly from our data, if they occured in-between our weather recording intervals... More about our weather records

Advertising

Germantown weather history for previous 24 hours

 ConditionsComfort  
Time TempWeatherWind HumidityBarometerVisibility
12:30 AM
Mon, Jul 6
73 °FClear.No wind94%30.15 "Hg10 mi
12:10 AM73 °FClear.No wind94%30.15 "Hg10 mi
11:50 PM
Sun, Jul 5
73 °FClear.No wind94%30.15 "Hg10 mi
11:30 PM73 °FClear.No wind94%30.16 "Hg10 mi
11:10 PM73 °FClear.No wind94%30.15 "Hg10 mi
10:50 PM73 °FClear.No wind94%30.16 "Hg10 mi
10:30 PM75 °FPassing clouds.3 mph89%30.15 "Hg10 mi
10:05 PM75 °FPassing clouds.5 mph89%30.15 "Hg10 mi
9:45 PM77 °FPassing clouds.5 mph83%30.14 "Hg10 mi
9:25 PM77 °FOvercast.5 mph89%30.14 "Hg10 mi
9:05 PM77 °FMostly cloudy.No wind89%30.14 "Hg7 mi
8:45 PM77 °FPartly sunny.No wind89%30.14 "Hg10 mi
7:45 PM81 °FSunny.No wind84%30.13 "Hg10 mi
6:45 PM82 °FPartly sunny.5 mph74%30.12 "Hg10 mi
3:50 PM84 °FScattered clouds.5 mph66%30.14 "Hg10 mi
2:47 PM82 °FPartly sunny.No wind70%30.16 "Hg10 mi
1:48 PM81 °FBroken clouds.No wind74%30.18 "Hg10 mi
12:47 PM79 °FSunny.No wind79%30.18 "Hg10 mi
11:50 AM75 °FPartly sunny.5 mph83%30.18 "Hg7 mi
10:49 AM72 °FFog.No wind94%30.20 "Hg4 mi
9:48 AM70 °FFog.No wind94%30.19 "Hg4 mi
8:50 AM68 °FFog.No wind100%30.18 "Hg1 mi
7:50 AM66 °FFog.No wind100%30.17 "Hg1 mi
6:50 AM64 °FMild.No wind100%30.15 "HgN/A
6:25 AM64 °FFog.No wind100%30.14 "Hg0 mi
6:05 AM64 °FFog.No wind100%30.13 "Hg1 mi
5:45 AM64 °FFog.No wind100%30.13 "Hg2 mi
5:25 AM64 °FFog.No wind100%30.12 "Hg2 mi
4:05 AM64 °FFog.No wind100%30.11 "Hg2 mi
3:45 AM64 °FFog.No wind100%30.11 "Hg2 mi
3:25 AM64 °FFog.No wind100%30.11 "Hg2 mi
3:05 AM64 °FFog.No wind100%30.10 "Hg1 mi
2:45 AM64 °FFog.No wind100%30.10 "Hg0 mi
2:05 AM63 °FThundershowers. Fog.3 mph100%30.09 "Hg1 mi
1:45 AM64 °FFog.No wind100%30.09 "Hg1 mi
1:25 AM63 °FFog.No wind100%30.09 "Hg1 mi
1:05 AM64 °FFog.No wind100%30.09 "Hg2 mi
Weather by CustomWeather, © 2015

See weather overviewHow to use our weather pages